Location: Bonaustraße
(48.4603°N, 11.9280°E)
Time: 08:41:11
(UTC+02:00)

AO-92 - Visible Passes

Search period start: 29 July 2021 00:00
Search period end: 08 August 2021 00:00
Orbit: 482 x 496 km, 97.4° (Epoch: 28 July)

Date Brightness Start Highest point End Pass type
(mag) Time Alt. Az. Time Alt. Az. Time Alt. Az.
29 Jul ? 00:21:58 11° WSW 00:22:58 12° W 00:24:24 10° WNW visible
29 Jul ? 22:24:28 19° ESE 22:26:18 31° ENE 22:29:31 10° N visible
29 Jul ? 23:58:56 19° WSW 23:59:54 21° W 00:02:42 10° NW visible
30 Jul ? 22:01:26 12° ESE 22:03:36 18° ENE 22:06:08 10° NNE visible
30 Jul ? 23:35:54 30° SW 23:36:55 37° W 23:40:17 10° NNW visible
31 Jul ? 21:39:54 10° ENE 21:40:58 11° ENE 21:42:02 10° NE visible
31 Jul ? 23:12:52 41° S 23:13:59 72° WSW 23:17:35 10° NNW visible
01 Aug ? 22:49:50 35° SE 22:51:07 60° ENE 22:54:40 10° N visible
02 Aug ? 00:24:18 11° W 00:25:04 11° W 00:26:14 10° WNW visible
02 Aug ? 22:26:48 22° ESE 22:28:20 32° ENE 22:31:35 10° N visible
03 Aug ? 00:01:16 19° WSW 00:01:57 20° W 00:04:40 10° NW visible
03 Aug ? 22:03:45 14° ESE 22:05:37 19° ENE 22:08:13 10° NNE visible
03 Aug ? 23:38:13 32° SW 23:38:56 35° W 23:42:17 10° NNW visible
04 Aug ? 21:41:41 10° E 21:42:57 12° ENE 21:44:14 10° NE visible
04 Aug ? 23:15:11 48° SSW 23:15:59 68° WSW 23:19:35 10° NNW visible
05 Aug ? 22:52:08 42° SE 22:53:06 63° ENE 22:56:41 10° N visible
06 Aug ? 00:26:36 11° W 00:27:04 11° W 00:27:57 10° WNW visible
06 Aug ? 22:29:05 26° ESE 22:30:18 34° ENE 22:33:35 10° N visible
07 Aug ? 00:03:33 19° WSW 00:03:57 19° W 00:06:34 10° NW visible
07 Aug ? 22:06:02 16° E 22:07:33 20° ENE 22:10:14 10° NNE visible
07 Aug ? 23:40:30 32° WSW 23:40:54 33° W 23:44:12 10° NNW visible
